Location: Star Dogged Moon Observatory
(29.7756°N, 82.0783°W)
Time: 13:49:09
(UTC-04:00)

Amateur Radio Satellites - All Passes

Search period start: 29 April 2016 13:19
Search period end: 30 April 2016 13:19
Location: Star Dogged Moon Observatory, 29.7756°N, 82.0783°W

Satellite Date Start Highest point End Downlink Frequencies (MHz)
Time Altitude Azimuth
50 SAT 29 Apr 13:19:16 13:22:40 38° 285° (WNW) 13:26:04 437.505
UKube-1 29 Apr 13:24:47 13:29:06 73° 285° (WNW) 13:33:25 .
AISAT 29 Apr 13:31:45 13:35:56 40° 287° (WNW) 13:40:06 437.250
Cosmos 2499 29 Apr 13:32:31 13:40:12 62° 82° (E) 13:48:29 435.465 / 435.565
ESTCUBE 1 29 Apr 13:34:25 13:38:17 28° 288° (WNW) 13:42:08 437.505/2401.250
JAS-2 29 Apr 13:43:11 13:48:40 64° 74° (ENE) 13:54:52 435.910
Oscar 19 29 Apr 13:51:20 13:56:16 48° 74° (ENE) 14:01:14 437.125/150
BUGSAT 1 29 Apr 14:01:44 14:03:10 12° 266° (W) 14:04:38 437.445
SPROUT 29 Apr 14:02:13 14:06:23 51° 285° (WNW) 14:10:32 437.525
CUBEBUG 1 29 Apr 14:22:04 14:23:40 12° 292° (WNW) 14:25:15 437.445
ITUPSAT 1 29 Apr 14:29:03 14:30:04 11° 94° (E) 14:31:04 437.325
AO-7 29 Apr 14:31:01 14:33:34 12° 55° (NE) 14:36:05 29.400- 29.500
SWISSCUBE 29 Apr 14:38:40 14:41:47 17° 96° (E) 14:44:53 437.505
GONETS M04 29 Apr 14:39:05 14:45:49 26° 276° (W) 14:52:34
PHONESAT 2.4 29 Apr 14:39:30 14:40:48 12° 359° (N) 14:42:04 2401.200-2431.200
AO-85 29 Apr 14:49:09 14:54:03 34° 303° (WNW) 14:59:01 145.980
TISAT 1 29 Apr 14:50:59 14:55:04 49° 285° (WNW) 14:59:06 437.305
Gurwin Techsat 1B 29 Apr 14:53:24 14:58:41 80° 77° (ENE) 15:04:01 435.225
ITAMSAT 1 29 Apr 15:01:33 15:06:17 37° 72° (ENE) 15:10:59 435.822/435.867
BEESAT 29 Apr 15:11:15 15:15:39 37° 99° (E) 15:20:01 436.000
Cosmos 2499 29 Apr 15:27:25 15:32:43 20° 275° (W) 15:38:15 435.465 / 435.565
JAS-2 29 Apr 15:32:11 15:34:22 12° 270° (W) 15:36:39 435.910
Oscar 19 29 Apr 15:33:00 15:35:45 14° 266° (W) 15:38:30 437.125/150
PCSat 29 Apr 15:35:13 15:37:33 13° 103° (ESE) 15:39:53 145.827
ISS 29 Apr 15:42:43 15:44:05 12° 35° (NE) 15:45:28 145.825
ITUPSAT 1 29 Apr 16:03:28 16:08:06 55° 286° (WNW) 16:12:45 437.325
SWISSCUBE 29 Apr 16:15:17 16:19:35 35° 288° (WNW) 16:23:54 437.505
PHONESAT 2.4 29 Apr 16:16:13 16:18:29 18° 16° (NNE) 16:20:46 2401.200-2431.200
AO-7 29 Apr 16:16:41 16:24:55 73° 71° (ENE) 16:33:10 29.400- 29.500
MOZHAYETS 4 29 Apr 16:18:15 16:20:16 13° 94° (E) 16:22:15
O/OREOS (USA 219) 29 Apr 16:23:25 16:27:55 56° 290° (WNW) 16:32:26 437.305
KKS-1 29 Apr 16:41:03 16:45:17 41° 100° (E) 16:49:28 437.445
ITAMSAT 1 29 Apr 16:42:05 16:45:45 19° 264° (W) 16:49:25 435.822/435.867
BEESAT 29 Apr 16:50:05 16:53:05 17° 292° (WNW) 16:56:07 436.000
CUSAT 1 29 Apr 16:51:16 16:53:53 31° 284° (WNW) 16:57:03 437.405
DANDE 29 Apr 16:59:45 17:02:19 79° 97° (E) 17:05:09 436.750
HORYU 2 29 Apr 17:00:27 17:04:34 37° 73° (ENE) 17:08:41 437.375
STARS 29 Apr 17:08:04 17:12:15 41° 100° (E) 17:16:23 437.465
PCSat 29 Apr 17:15:02 17:20:21 59° 296° (WNW) 17:25:43 145.827
ISS 29 Apr 17:17:34 17:20:46 52° 228° (SW) 17:23:56 145.825
NOAA 18 29 Apr 17:26:39 17:28:00 11° 64° (ENE) 17:29:21 137.9125
CUTE-I 29 Apr 17:45:23 17:47:00 11° 65° (ENE) 17:48:37 437.470
Cosmos 2491 29 Apr 17:50:59 17:56:44 19° 71° (ENE) 18:02:26 435.465 / 435.565
CUBESAT XI-V 29 Apr 17:52:27 17:55:04 15° 94° (E) 17:57:42 437.345
PHONESAT 2.4 29 Apr 17:52:29 17:55:40 84° 30° (NNE) 17:58:51 2401.200-2431.200
MOZHAYETS 4 29 Apr 17:53:14 17:57:32 43° 285° (WNW) 18:01:51
SO-50 29 Apr 18:05:54 18:10:32 61° 61° (ENE) 18:14:59 436.795
AO-7 29 Apr 18:12:57 18:18:09 18° 264° (W) 18:23:22 29.400- 29.500
KKS-1 29 Apr 18:19:16 18:21:25 13° 292° (WNW) 18:23:34 437.445
M-CUBED/EXP-1 PRIME 29 Apr 18:21:53 18:24:17 14° 63° (ENE) 18:26:41 437.505
Cubesat XI-IV 29 Apr 18:25:09 18:29:47 31° 71° (ENE) 18:34:25 437.490
NOAA 15 29 Apr 18:36:04 18:41:15 65° 74° (ENE) 18:46:28 137.62
HORYU 2 29 Apr 18:38:45 18:41:11 14° 265° (W) 18:43:37 437.375
AUBIESAT-1 29 Apr 18:42:53 18:46:10 20° 65° (ENE) 18:49:29 437.475
STARS 29 Apr 18:46:13 18:48:10 13° 292° (WNW) 18:50:09 437.465
GOMX 1 29 Apr 18:52:26 18:56:13 23° 69° (ENE) 19:00:11 467.674
LilacSat-2 29 Apr 18:56:53 19:00:42 57° 77° (ENE) 19:04:31 437.200
BEESAT 3 29 Apr 18:58:08 19:01:08 21° 110° (ESE) 19:04:09 437.485
BRITE-PL 29 Apr 18:58:56 19:03:23 60° 75° (ENE) 19:08:14 437.365/2234.400
BEESAT 2 29 Apr 19:00:01 19:01:24 12° 108° (ESE) 19:02:46 435.950
NOAA 18 29 Apr 19:02:25 19:07:56 77° 257° (WSW) 19:13:28 137.9125
DOVE 4 29 Apr 19:07:54 19:10:59 17° 67° (ENE) 19:14:09 437.250
JUGNU 29 Apr 19:08:25 19:12:36 20° 165° (SSE) 19:16:49 437.505
CUTE-I 29 Apr 19:21:05 19:26:23 69° 258° (WSW) 19:31:42 437.470
CUBESAT XI-V 29 Apr 19:28:10 19:32:31 39° 286° (WNW) 19:36:53 437.345
PHONESAT 2.4 29 Apr 19:31:40 19:32:12 10° 221° (SW) 19:32:44 2401.200-2431.200
Cosmos 2491 29 Apr 19:45:27 19:54:13 72° 267° (W) 20:02:53 435.465 / 435.565
YUBILEINY 29 Apr 19:50:23 19:59:03 69° 92° (E) 20:07:41 435.215
M-CUBED/EXP-1 PRIME 29 Apr 19:53:48 19:58:19 51° 256° (WSW) 20:02:55 437.505
Cosmos 2504 29 Apr 19:58:52 20:01:06 12° 82° (E) 20:03:18 435.465 / 435.565
SRMSAT 29 Apr 20:03:04 20:04:59 11° 160° (SSE) 20:06:53 437.500
Cubesat XI-IV 29 Apr 20:05:29 20:09:46 24° 263° (W) 20:14:03 437.490
CUTE 1.7 + AOD 2 29 Apr 20:14:38 20:17:52 22° 72° (ENE) 20:21:05 437.475
AUBIESAT-1 29 Apr 20:16:10 20:20:20 34° 258° (WSW) 20:24:34 437.475
CINEMA 3 29 Apr 20:16:47 20:20:59 28° 72° (ENE) 20:25:14 145.822/145.860
NOAA 15 29 Apr 20:20:22 20:21:20 10° 267° (W) 20:22:19 137.62
GOMX 1 29 Apr 20:29:59 20:34:04 28° 265° (W) 20:38:25 467.674
BEESAT 2 29 Apr 20:35:08 20:38:50 38° 300° (WNW) 20:42:35 435.950
BEESAT 3 29 Apr 20:35:38 20:38:42 21° 303° (WNW) 20:41:47 437.485
HO-68 29 Apr 20:35:39 20:42:40 60° 72° (ENE) 20:49:41 435.675
DOVE 4 29 Apr 20:43:33 20:48:11 43° 262° (W) 20:53:05 437.250
SEEDS 29 Apr 20:47:45 20:51:39 39° 75° (ENE) 20:55:33 437.485
PRISM 29 Apr 20:53:26 20:56:22 18° 96° (E) 20:59:17 437.425
STRAND 1 29 Apr 20:55:03 21:00:07 68° 285° (WNW) 21:05:11 437.568
JUGNU 29 Apr 20:56:00 21:01:08 30° 175° (S) 21:06:17 437.505
COMPASS 1 29 Apr 20:57:55 21:01:42 36° 74° (ENE) 21:05:30 437.405
CANX-2 29 Apr 21:15:51 21:19:57 50° 260° (W) 21:24:04 2200.000
RS-15 29 Apr 21:16:30 21:25:08 27° 103° (ESE) 21:34:02 29.354- 29.394
Oscar 11 29 Apr 21:21:38 21:24:54 21° 71° (ENE) 21:28:10 145.826/435.025
CUBEBUG 2 29 Apr 21:27:46 21:32:24 54° 75° (ENE) 21:37:00 437.445
FUNcube-1 29 Apr 21:27:48 21:31:15 22° 71° (ENE) 21:34:41 145.935
UWE-3 29 Apr 21:28:19 21:32:35 36° 74° (ENE) 21:36:50 435.000/436.395/437.385
AAUSAT CUBESAT 2 29 Apr 21:31:57 21:36:04 82° 76° (ENE) 21:40:11 437.432
AIST 2 29 Apr 21:37:05 21:41:06 52° 114° (ESE) 21:45:07 435.215
DELFI C3 29 Apr 21:41:37 21:43:54 15° 70° (ENE) 21:46:11 145.870
Cosmos 2504 29 Apr 21:46:02 21:53:32 81° 276° (W) 22:00:45 435.465 / 435.565
SRMSAT 29 Apr 21:48:56 21:53:36 24° 168° (SSE) 21:58:16 437.500
CUTE 1.7 + AOD 2 29 Apr 21:50:17 21:53:33 22° 264° (W) 21:56:50 437.475
YUBILEINY 29 Apr 21:50:30 21:56:24 20° 288° (WNW) 22:02:19 435.215
CINEMA 3 29 Apr 21:54:01 21:57:59 24° 265° (W) 22:02:02 145.822/145.860
ZACube-1 29 Apr 22:06:51 22:11:24 69° 77° (ENE) 22:15:54 437.345
HUMSAT D 29 Apr 22:07:42 22:09:58 14° 70° (ENE) 22:12:12 437.325/437.525
HO-68 29 Apr 22:25:48 22:30:38 19° 265° (W) 22:35:30 435.675
SEEDS 29 Apr 22:26:08 22:27:27 11° 266° (W) 22:28:46 437.485
PRISM 29 Apr 22:28:10 22:31:35 25° 288° (WNW) 22:34:59 437.425
COMPASS 1 29 Apr 22:35:42 22:37:20 12° 266° (W) 22:38:59 437.405
JUGNU 29 Apr 22:44:34 22:49:43 30° 185° (S) 22:54:54 437.505
Oscar 11 29 Apr 22:57:23 23:00:51 23° 263° (W) 23:04:19 145.826/435.025
FUNcube-1 29 Apr 23:03:30 23:07:18 26° 263° (W) 23:11:04 145.935
UWE-3 29 Apr 23:06:12 23:09:03 16° 265° (W) 23:11:55 435.000/436.395/437.385
CUBEBUG 2 29 Apr 23:07:53 23:09:12 11° 267° (W) 23:10:30 437.445
DELFI C3 29 Apr 23:15:08 23:18:30 27° 263° (W) 23:21:52 145.870
AIST 2 29 Apr 23:18:42 23:19:51 11° 308° (NW) 23:21:00 435.215
RS-15 29 Apr 23:25:23 23:36:26 67° 300° (WNW) 23:48:10 29.354- 29.394
UNISAT 6 29 Apr 23:27:08 23:31:16 44° 99° (E) 23:35:19 437.425
AO-85 29 Apr 23:27:10 23:31:36 44° 59° (ENE) 23:35:38 145.980
CUBEBUG 1 29 Apr 23:34:35 23:37:35 19° 70° (ENE) 23:40:37 437.445
SRMSAT 29 Apr 23:37:05 23:42:19 32° 178° (S) 23:47:33 437.500
HUMSAT D 29 Apr 23:41:21 23:45:14 34° 261° (W) 23:49:07 437.325/437.525
TIGRISAT 29 Apr 23:45:46 23:50:05 73° 102° (ESE) 23:54:18 435.000
VELOX 1 29 Apr 23:51:35 23:55:28 31° 72° (ENE) 23:59:23 145.980
50 SAT 29 Apr 23:52:00 23:55:20 33° 74° (ENE) 23:58:39 437.505
NANOSAT C BR1 29 Apr 23:57:44 00:00:10 15° 95° (E) 00:02:35 145.865
DX 1 30 Apr 00:00:29 00:04:27 35° 73° (ENE) 00:08:26 434.975-435.025
ANTELSAT 30 Apr 00:09:27 00:13:38 51° 285° (WNW) 00:17:46 437.575/2403.000
UKube-1 30 Apr 00:13:19 00:17:21 41° 74° (ENE) 00:21:24 .
AISAT 30 Apr 00:22:33 00:26:58 82° 77° (ENE) 00:31:26 437.250
ESTCUBE 1 30 Apr 00:27:09 00:31:34 64° 259° (WSW) 00:36:01 437.505/2401.250
JUGNU 30 Apr 00:34:00 00:38:15 20° 194° (SSW) 00:42:32 437.505
QB50P2 30 Apr 00:45:43 00:49:57 73° 102° (ESE) 00:54:08 145.880/145.840
POLYITAN 1 30 Apr 00:47:50 00:52:04 75° 102° (ESE) 00:56:15 437.675
SPROUT 30 Apr 00:49:28 00:53:38 52° 76° (ENE) 00:57:50 437.525
DUCHIFAT 1 30 Apr 00:50:14 00:54:27 70° 102° (ESE) 00:58:37 145.980
POPSAT HIP 1 30 Apr 00:51:22 00:55:38 80° 103° (ESE) 00:59:50 437.405
QB50P1 30 Apr 00:54:57 00:59:13 89° 259° (W) 01:03:25 145.935-145.965
JAS-2 30 Apr 01:00:27 01:04:43 15° 91° (E) 01:08:56 435.910
UNISAT 6 30 Apr 01:06:08 01:07:31 11° 292° (WNW) 01:08:53 437.425
CUBEBUG 1 30 Apr 01:09:54 01:13:38 28° 263° (W) 01:17:23 437.445
AO-85 30 Apr 01:09:57 01:11:26 12° 255° (WSW) 01:12:54 145.980
SRMSAT 30 Apr 01:26:03 01:31:04 28° 188° (S) 01:36:04 437.500
AIST 1 30 Apr 01:26:08 01:30:22 69° 94° (E) 01:34:39
VELOX 1 30 Apr 01:29:07 01:31:56 17° 265° (W) 01:34:45 145.980
NANOSAT C BR1 30 Apr 01:32:11 01:35:54 31° 287° (WNW) 01:39:36 145.865
GONETS M04 30 Apr 01:33:51 01:42:39 73° 93° (E) 01:51:27
TISAT 1 30 Apr 01:36:16 01:40:23 51° 75° (ENE) 01:44:31 437.305
DX 1 30 Apr 01:38:24 01:40:41 14° 265° (W) 01:42:58 434.975-435.025
SWISSCUBE 30 Apr 01:41:59 01:42:41 10° 66° (ENE) 01:43:22 437.505
RS-15 30 Apr 01:44:56 01:51:40 17° 325° (NW) 01:58:38 29.354- 29.394
BUGSAT 1 30 Apr 01:46:41 01:50:44 48° 285° (WNW) 01:54:42 437.445
CUSAT 1 30 Apr 01:49:22 01:51:55 12° 71° (ENE) 01:54:33 437.405
UKube-1 30 Apr 01:51:54 01:53:30 12° 266° (W) 01:55:06 .
Cosmos 2499 30 Apr 02:02:39 02:09:41 57° 92° (E) 02:16:33 435.465 / 435.565
PCSat 30 Apr 02:09:17 02:14:03 31° 59° (ENE) 02:18:48 145.827
Oscar 19 30 Apr 02:09:22 02:13:49 28° 97° (E) 02:18:14 437.125/150
BEESAT 30 Apr 02:12:24 02:16:02 22° 70° (ENE) 02:19:40 436.000
O/OREOS (USA 219) 30 Apr 02:39:27 02:43:58 80° 253° (WSW) 02:48:25 437.305
JAS-2 30 Apr 02:42:21 02:50:12 83° 283° (WNW) 02:57:58 435.910
ITUPSAT 1 30 Apr 03:03:51 03:08:37 85° 77° (ENE) 03:13:24 437.325
SWISSCUBE 30 Apr 03:15:12 03:19:53 61° 259° (WSW) 03:24:36 437.505
Gurwin Techsat 1B 30 Apr 03:15:51 03:21:02 53° 101° (E) 03:26:12 435.225
SRMSAT 30 Apr 03:16:06 03:19:43 16° 197° (SSW) 03:23:19 437.500
ITAMSAT 1 30 Apr 03:20:58 03:24:54 22° 96° (E) 03:28:48 435.822/435.867
CUSAT 1 30 Apr 03:27:13 03:34:36 79° 83° (E) 03:42:42 437.405
KKS-1 30 Apr 03:34:04 03:37:11 19° 70° (ENE) 03:40:18 437.445
GONETS M04 30 Apr 03:34:28 03:40:07 18° 289° (WNW) 03:45:49
DANDE 30 Apr 03:39:39 03:46:10 50° 81° (E) 03:53:58 436.750
Oscar 19 30 Apr 03:48:44 03:52:58 26° 290° (WNW) 03:57:10 437.125/150
BEESAT 30 Apr 03:49:33 03:53:36 28° 262° (W) 03:57:41 436.000
PCSat 30 Apr 03:52:48 03:57:16 26° 253° (WSW) 04:01:43 145.827
Cosmos 2499 30 Apr 03:58:31 04:03:05 18° 286° (WNW) 04:07:38 435.465 / 435.565
STARS 30 Apr 03:59:45 04:02:46 18° 70° (ENE) 04:05:48 437.465
AO-7 30 Apr 04:25:37 04:33:05 36° 100° (E) 04:40:30 29.400- 29.500
JAS-2 30 Apr 04:30:32 04:34:03 14° 299° (WNW) 04:37:35 435.910
MOZHAYETS 4 30 Apr 04:48:31 04:53:06 86° 74° (ENE) 04:57:41
Gurwin Techsat 1B 30 Apr 04:57:37 05:00:28 15° 294° (WNW) 05:03:20 435.225
BEESAT 3 30 Apr 04:57:49 05:01:19 30° 59° (ENE) 05:04:48 437.485
BEESAT 2 30 Apr 04:59:25 05:02:12 18° 55° (NE) 05:04:59 435.950
ITAMSAT 1 30 Apr 04:59:44 05:04:20 33° 289° (WNW) 05:08:56 435.822/435.867
HORYU 2 30 Apr 04:59:45 05:01:02 11° 94° (E) 05:02:19 437.375
KKS-1 30 Apr 05:09:37 05:13:30 29° 262° (W) 05:17:24 437.445
CUSAT 1 30 Apr 05:11:43 05:16:08 17° 273° (W) 05:20:46 437.405
DANDE 30 Apr 05:23:17 05:28:48 26° 269° (W) 05:35:06 436.750
STARS 30 Apr 05:35:00 05:38:51 29° 262° (W) 05:42:45 437.465
YUBILEINY 30 Apr 06:09:18 06:16:03 24° 74° (ENE) 06:22:45 435.215
AO-7 30 Apr 06:18:07 06:25:43 42° 294° (WNW) 06:33:21 29.400- 29.500
RS-15 30 Apr 06:23:29 06:32:23 22° 41° (NE) 06:41:14 29.354- 29.394
CUBESAT XI-V 30 Apr 06:24:53 06:29:28 83° 259° (WSW) 06:34:05 437.345
HORYU 2 30 Apr 06:33:32 06:37:45 45° 286° (WNW) 06:41:56 437.375
BEESAT 3 30 Apr 06:36:31 06:38:43 14° 251° (WSW) 06:40:53 437.485
BEESAT 2 30 Apr 06:36:40 06:40:01 26° 249° (WSW) 06:43:20 435.950
Cosmos 2491 30 Apr 06:44:07 06:51:04 27° 85° (E) 06:58:01 435.465 / 435.565
Cubesat XI-IV 30 Apr 06:48:55 06:52:47 20° 96° (E) 06:56:39 437.490
NOAA 15 30 Apr 06:57:30 07:02:30 41° 100° (E) 07:07:28 137.62
GOMX 1 30 Apr 07:01:50 07:04:03 13° 91° (E) 07:06:15 467.674
BRITE-PL 30 Apr 07:09:28 07:14:43 37° 97° (E) 07:19:49 437.365/2234.400
NOAA 18 30 Apr 07:30:41 07:36:09 78° 103° (ESE) 07:41:35 137.9125
M-CUBED/EXP-1 PRIME 30 Apr 07:41:00 07:43:38 18° 99° (E) 07:46:09 437.505
AIST 2 30 Apr 07:42:09 07:46:18 85° 63° (ENE) 07:50:25 435.215
CUTE-I 30 Apr 07:44:14 07:49:34 80° 103° (ESE) 07:54:53 437.470
Cosmos 2504 30 Apr 07:45:29 07:51:33 25° 76° (ENE) 07:57:53 435.465 / 435.565
AUBIESAT-1 30 Apr 08:01:53 08:05:08 27° 101° (ESE) 08:08:11 437.475
STRAND 1 30 Apr 08:04:42 08:09:49 89° 256° (WSW) 08:14:56 437.568
YUBILEINY 30 Apr 08:04:43 08:13:07 56° 269° (W) 08:21:34 435.215
LilacSat-2 30 Apr 08:10:37 08:14:07 36° 285° (WNW) 08:17:36 437.200
HO-68 30 Apr 08:12:39 08:16:16 14° 94° (E) 08:19:52 435.675
SO-50 30 Apr 08:13:34 08:18:26 84° 119° (ESE) 08:23:23 436.795
ISS 30 Apr 08:16:25 08:19:40 81° 133° (SE) 08:22:56 145.825
Cubesat XI-IV 30 Apr 08:28:02 08:32:52 37° 288° (WNW) 08:37:42 437.490
RS-15 30 Apr 08:34:28 08:46:53 82° 63° (ENE) 08:59:07 29.354- 29.394
GOMX 1 30 Apr 08:37:06 08:42:27 59° 285° (WNW) 08:47:33 467.674
NOAA 15 30 Apr 08:38:15 08:41:54 19° 292° (WNW) 08:45:33 137.62
Cosmos 2491 30 Apr 08:38:50 08:47:18 52° 280° (W) 08:55:52 435.465 / 435.565
SEEDS 30 Apr 08:40:24 08:41:04 10° 93° (E) 08:41:46 437.485
BRITE-PL 30 Apr 08:48:24 08:52:51 24° 290° (WNW) 08:57:15 437.365/2234.400
DOVE 4 30 Apr 08:48:36 08:53:46 88° 107° (ESE) 08:58:35 437.250
CANX-2 30 Apr 09:06:48 09:10:48 41° 99° (E) 09:14:47 2200.000
PRISM 30 Apr 09:10:49 09:14:52 81° 258° (WSW) 09:18:57 437.425
M-CUBED/EXP-1 PRIME 30 Apr 09:15:10 09:18:07 21° 294° (WNW) 09:20:54 437.505
NOAA 18 30 Apr 09:15:16 09:16:04 10° 297° (WNW) 09:16:51 137.9125
AAUSAT CUBESAT 2 30 Apr 09:21:04 09:24:06 20° 96° (E) 09:27:08 437.432
CUBEBUG 2 30 Apr 09:26:18 09:29:02 16° 94° (E) 09:31:43 437.445
UWE-3 30 Apr 09:27:25 09:27:46 10° 93° (E) 09:28:07 435.000/436.395/437.385
AUBIESAT-1 30 Apr 09:37:18 09:39:19 14° 296° (WNW) 09:41:16 437.475
Cosmos 2504 30 Apr 09:37:41 09:44:59 50° 269° (W) 09:52:50 435.465 / 435.565
CUTE 1.7 + AOD 2 30 Apr 09:40:00 09:44:14 82° 280° (W) 09:48:26 437.475
CINEMA 3 30 Apr 09:54:22 09:58:53 55° 285° (WNW) 10:03:10 145.822/145.860
HO-68 30 Apr 09:57:17 10:04:25 75° 287° (WNW) 10:11:33 435.675
SO-50 30 Apr 09:58:44 09:59:30 10° 311° (NW) 10:00:15 436.795
ZACube-1 30 Apr 10:02:26 10:05:29 19° 96° (E) 10:08:29 437.345
SEEDS 30 Apr 10:12:57 10:16:54 43° 285° (WNW) 10:20:52 437.485
UNISAT 6 30 Apr 10:20:26 10:23:54 21° 71° (ENE) 10:27:22 437.425
COMPASS 1 30 Apr 10:21:47 10:25:48 48° 284° (WNW) 10:29:47 437.405
PHONESAT 2.4 30 Apr 10:23:15 10:26:01 29° 144° (SE) 10:28:48 2401.200-2431.200
TIGRISAT 30 Apr 10:38:17 10:42:24 31° 73° (ENE) 10:46:30 435.000
CANX-2 30 Apr 10:44:45 10:46:14 12° 291° (WNW) 10:47:42 2200.000
Oscar 11 30 Apr 10:49:31 10:53:49 82° 282° (WNW) 10:58:07 145.826/435.025
RS-15 30 Apr 10:49:41 10:57:56 21° 259° (W) 11:06:10 29.354- 29.394
AAUSAT CUBESAT 2 30 Apr 10:56:12 10:59:28 23° 288° (WNW) 11:02:44 437.432
FUNcube-1 30 Apr 10:56:57 11:01:08 83° 282° (WNW) 11:05:15 145.935
DELFI C3 30 Apr 10:58:06 11:02:01 55° 100° (E) 11:05:55 145.870
UWE-3 30 Apr 11:00:24 11:04:25 43° 285° (WNW) 11:08:21 435.000/436.395/437.385
ANTELSAT 30 Apr 11:01:27 11:06:05 64° 76° (ENE) 11:10:40 437.575/2403.000
CUBEBUG 2 30 Apr 11:01:58 11:05:39 28° 288° (WNW) 11:09:14 437.445
HUMSAT D 30 Apr 11:30:27 11:34:27 56° 100° (E) 11:38:27 437.325/437.525
QB50P2 30 Apr 11:32:50 11:36:19 25° 72° (ENE) 11:39:48 145.880/145.840
POLYITAN 1 30 Apr 11:34:54 11:38:26 25° 72° (ENE) 11:41:58 437.675
DUCHIFAT 1 30 Apr 11:36:43 11:40:05 23° 72° (ENE) 11:43:28 145.980
POPSAT HIP 1 30 Apr 11:38:15 11:41:49 27° 72° (ENE) 11:45:25 437.405
ZACube-1 30 Apr 11:38:21 11:41:40 23° 288° (WNW) 11:44:55 437.345
QB50P1 30 Apr 11:41:36 11:45:20 30° 73° (ENE) 11:49:04 145.935-145.965
GONETS M04 30 Apr 11:52:55 11:59:58 27° 75° (ENE) 12:06:56
UNISAT 6 30 Apr 11:56:21 12:00:23 28° 262° (W) 12:04:25 437.425
PHONESAT 2.4 30 Apr 11:59:58 12:02:51 32° 336° (NNW) 12:05:45 2401.200-2431.200
Cosmos 2499 30 Apr 12:02:33 12:05:54 13° 72° (ENE) 12:09:21 435.465 / 435.565
UKube-1 30 Apr 12:08:47 12:10:03 11° 94° (E) 12:11:19 .
TIGRISAT 30 Apr 12:15:46 12:19:02 19° 264° (W) 12:22:18 435.000
NANOSAT C BR1 30 Apr 12:17:28 12:21:44 84° 78° (ENE) 12:26:01 145.865
AISAT 30 Apr 12:19:23 12:23:04 25° 97° (E) 12:26:43 437.250
ESTCUBE 1 30 Apr 12:25:40 12:29:57 41° 99° (E) 12:34:15 437.505/2401.250
BUGSAT 1 30 Apr 12:29:59 12:34:01 48° 75° (ENE) 12:38:06 437.445
SPROUT 30 Apr 12:43:01 12:45:22 14° 95° (E) 12:47:42 437.525
JAS-2 30 Apr 12:50:02 12:54:12 21° 65° (ENE) 12:58:41 435.910
50 SAT 30 Apr 13:00:57 13:04:35 74° 283° (WNW) 13:08:13 437.505
CUBEBUG 1 30 Apr 13:03:40 13:08:08 85° 104° (ESE) 13:12:33 437.445
QB50P2 30 Apr 13:08:52 13:12:00 20° 264° (W) 13:15:10 145.880/145.840
POLYITAN 1 30 Apr 13:11:01 13:14:08 19° 264° (W) 13:17:15 437.675
DUCHIFAT 1 30 Apr 13:12:26 13:15:40 21° 264° (W) 13:18:54 145.980
